Location: Palomar Mountain Lodge
(33.3110°N, 116.8495°W)
Time: 05:44:18
(UTC-07:00)

Genesis I - Pass Details

Date: 19 May 2017
Orbit: 501 x 529 km, 64.5° (Epoch: 22 July)

Event Time Altitude Azimuth Distance (km) Brightness Sun altitude
Rises 20:39:43 0° 332° (NNW) 2,659 8.0 -11.1°
Reaches altitude 10° 20:41:55 10° 334° (NNW) 1,769 6.9 -11.5°
Maximum altitude 20:45:52 79° 60° (ENE) 540 3.2 -12.1°
Enters shadow 20:48:46 18° 147° (SSE) 1,342 4.7 -12.6°
